TimeMST,TemperatureF,Dew PointF,Humidity,Sea Level PressureIn,VisibilityMPH,Wind Direction,Wind SpeedMPH,Gust SpeedMPH,PrecipitationIn,Events,Conditions,WindDirDegrees,DateUTC
12:13 AM,19.4,-11.2,25,30.15,10.0,WNW,6.9,-,N/A,,Clear,290,2013-01-04 07:13:00
12:34 AM,17.6,-13.0,25,30.15,10.0,WNW,6.9,-,N/A,,Clear,290,2013-01-04 07:34:00
12:54 AM,17.6,-11.2,27,30.14,10.0,West,5.8,-,N/A,,Clear,270,2013-01-04 07:54:00
1:14 AM,14.0,-9.4,35,30.14,10.0,West,5.8,-,N/A,,Clear,260,2013-01-04 08:14:00
1:34 AM,12.2,-9.4,38,30.15,10.0,West,4.6,-,N/A,,Clear,260,2013-01-04 08:34:00
1:54 AM,14.0,-9.4,35,30.15,10.0,WSW,4.6,-,N/A,,Clear,250,2013-01-04 08:54:00
2:14 AM,12.2,-9.4,38,30.15,10.0,WSW,4.6,-,N/A,,Clear,250,2013-01-04 09:14:00
9:35 AM,28.4,3.2,34,30.14,10.0,West,5.8,-,N/A,,Clear,260,2013-01-04 16:35:00
9:55 AM,32.0,1.4,27,30.14,10.0,WSW,4.6,-,N/A,,Clear,250,2013-01-04 16:55:00
10:15 AM,32.0,5.0,32,30.14,10.0,WSW,3.5,-,N/A,,Clear,240,2013-01-04 17:15:00
10:35 AM,35.6,1.4,24,30.13,10.0,West,3.5,-,N/A,,Clear,280,2013-01-04 17:35:00
10:55 AM,35.6,5.0,28,30.13,10.0,WNW,4.6,-,N/A,,Clear,290,2013-01-04 17:55:00
11:15 AM,37.4,5.0,26,30.11,10.0,NW,5.8,-,N/A,,Clear,310,2013-01-04 18:15:00
11:35 AM,37.4,-0.4,20,30.10,10.0,NW,5.8,-,N/A,,Clear,320,2013-01-04 18:35:00
11:55 AM,37.4,1.4,22,30.09,10.0,NW,6.9,-,N/A,,Clear,320,2013-01-04 18:55:00
12:15 PM,35.6,5.0,28,30.07,10.0,NW,6.9,-,N/A,,Clear,320,2013-01-04 19:15:00
12:35 PM,37.4,3.2,24,30.06,10.0,NW,4.6,-,N/A,,Clear,320,2013-01-04 19:35:00
12:55 PM,37.4,3.2,24,30.05,10.0,NW,3.5,-,N/A,,Clear,320,2013-01-04 19:55:00
1:15 PM,37.4,5.0,26,30.03,10.0,Calm,Calm,-,N/A,,Clear,0,2013-01-04 20:15:00
1:35 PM,37.4,3.2,24,30.02,10.0,NNW,3.5,-,N/A,,Clear,330,2013-01-04 20:35:00
1:54 PM,37.4,5.0,26,30.01,10.0,NNW,4.6,-,N/A,,Clear,340,2013-01-04 20:54:00
2:15 PM,37.4,8.6,30,30.01,10.0,NNW,4.6,-,N/A,,Clear,340,2013-01-04 21:15:00
2:35 PM,37.4,6.8,28,30.01,10.0,Calm,Calm,-,N/A,,Clear,0,2013-01-04 21:35:00
2:55 PM,37.4,8.6,30,30.01,10.0,North,3.5,-,N/A,,Clear,360,2013-01-04 21:55:00
3:15 PM,37.4,8.6,30,30.01,10.0,NNE,3.5,-,N/A,,Clear,20,2013-01-04 22:15:00
3:35 PM,33.8,12.2,41,30.01,10.0,East,5.8,-,N/A,,Clear,100,2013-01-04 22:35:00
3:55 PM,33.8,12.2,41,30.01,10.0,ESE,3.5,-,N/A,,Clear,110,2013-01-04 22:55:00
4:15 PM,32.0,10.4,41,30.01,10.0,ESE,3.5,-,N/A,,Clear,120,2013-01-04 23:15:00
4:35 PM,32.0,8.6,38,30.01,10.0,ESE,3.5,-,N/A,,Clear,110,2013-01-04 23:35:00
4:55 PM,30.2,6.8,37,30.01,10.0,Calm,Calm,-,N/A,,Clear,0,2013-01-04 23:55:00
5:15 PM,28.4,8.6,43,30.01,10.0,Calm,Calm,-,N/A,,Clear,0,2013-01-05 00:15:00
5:35 PM,28.4,5.0,37,30.01,10.0,Calm,Calm,-,N/A,,Clear,0,2013-01-05 00:35:00
5:55 PM,23.0,5.0,46,30.01,10.0,Calm,Calm,-,N/A,,Clear,0,2013-01-05 00:55:00
6:14 PM,23.0,5.0,46,30.01,10.0,Calm,Calm,-,N/A,,Clear,0,2013-01-05 01:14:00
6:35 PM,17.6,5.0,58,30.01,10.0,West,3.5,-,N/A,,Clear,280,2013-01-05 01:35:00
6:54 PM,19.4,6.8,58,30.01,10.0,SW,5.8,-,N/A,,Clear,230,2013-01-05 01:54:00
7:14 PM,17.6,6.8,63,30.00,10.0,SW,5.8,-,N/A,,Clear,220,2013-01-05 02:14:00
7:35 PM,19.4,6.8,58,30.00,10.0,SW,5.8,-,N/A,,Clear,230,2013-01-05 02:35:00
7:55 PM,19.4,5.0,54,30.00,10.0,SW,6.9,-,N/A,,Clear,230,2013-01-05 02:55:00
8:14 PM,21.2,5.0,50,29.99,10.0,West,6.9,-,N/A,,Clear,260,2013-01-05 03:14:00
8:34 PM,15.8,5.0,62,29.99,10.0,West,8.1,-,N/A,,Clear,270,2013-01-05 03:34:00
8:54 PM,19.4,5.0,54,29.99,10.0,West,8.1,-,N/A,,Clear,270,2013-01-05 03:54:00
9:15 PM,17.6,5.0,58,29.99,10.0,West,8.1,-,N/A,,Clear,280,2013-01-05 04:15:00
9:34 PM,19.4,5.0,54,29.99,10.0,West,9.2,-,N/A,,Clear,280,2013-01-05 04:34:00
9:55 PM,21.2,5.0,50,30.00,10.0,WNW,8.1,-,N/A,,Clear,290,2013-01-05 04:55:00
10:15 PM,21.2,5.0,50,30.00,10.0,West,8.1,-,N/A,,Clear,280,2013-01-05 05:15:00
10:35 PM,17.6,3.2,53,30.00,10.0,West,6.9,-,N/A,,Clear,270,2013-01-05 05:35:00
10:55 PM,19.4,5.0,54,30.01,10.0,West,8.1,-,N/A,,Clear,280,2013-01-05 05:55:00
11:15 PM,19.4,5.0,54,30.01,10.0,WNW,9.2,-,N/A,,Clear,290,2013-01-05 06:15:00
11:35 PM,19.4,5.0,54,30.01,10.0,WNW,10.4,-,N/A,,Clear,300,2013-01-05 06:35:00
11:55 PM,17.6,5.0,58,30.01,10.0,WNW,9.2,-,N/A,,Clear,300,2013-01-05 06:55:00